ウィルタネン彗星

46P/Wirtanen (2018)

English version
Home page
Updated on December 27, 2018

---------------------------------------------------------------------

・ プロフィール

・ 写真集

・ 軌道要素

Epoch 2018 Dec. 28.0 TT = JDT 2458480.5
T 2018 Dec. 12.94146 TT                                 MPCW
q   1.0553673            (2000.0)            P               Q
n   0.18118380     Peri.  356.35388     +0.19786389     -0.95925831
a   3.0930705      Node    82.15692     +0.90441435     +0.09931452
e   0.6587962      Incl.   11.74643     +0.37800074     +0.26449976
P   5.44
From 2778 observations 2007 Dec. 9-2018 Dec. 25, mean residual 0".7.
     Nongravitational parameters A1 = +0.31, A2 = -0.1566.

・ 星図

・ 光度変化

        m1 = 14.5 + 5 logΔ +  8.0 log r          [    ,-150]  (              〜2018年 7月15日)
        m1 =  8.0 + 5 logΔ + 27.0 log r(t - 12)  [-150, 180]  (2018年 7月15日〜2019年 6月10日)
        m1 = 14.5 + 5 logΔ +  8.0 log r          [ 180,    ]  (2019年 6月10日〜              )

---------------------------------------------------------------------

軌道要素はM.P.E.C. 2018-Y74に掲載されたものです。
星図はステラナビゲータ Ver.8 (アストロアーツ) で作成したものです。
光度グラフはComet for Windowsで作成したものです。

---------------------------------------------------------------------

Copyright(C) Seiichi Yoshida (comet@aerith.net). All rights reserved.